sat.trackr.live / text

‹ back to catalog

STARLINK-5539

NORAD 55747 · 2023-028G

PAYLOAD ACTIVE UNKNOWN

§ Identity

Operator
Country
US
Launch date
2023-03-03
Launch site
AFWTR
Launch vehicle
Mass (kg)
RCS (m²)

Purposes: comms

External: N2YO · Heavens-Above · Gunter

§ Orbital elements

Epoch: 2026-05-25T02:19:59.890080Z

Period
96.11 min
Inclination
70.0006°
Eccentricity
0.0002715
Mean motion
14.98334784 rev/d
Perigee alt
570.2 km
Apogee alt
573.9 km
Semi-major
6,950.2 km
B*
1.0201e-4
RAAN
51.8730°
Arg perigee
264.3372°
Mean anomaly
95.7477°
Rev number
17,748

§ Raw data

STARLINK-55391 55747U 23028G   26145.09722095  .00001125  00000+0  10201-3 0  99902 55747  70.0006  51.8730 0002715 264.3372  95.7477 14.98334784177486

JSON: /api/v1/satellites/55747 · /tle

For live sub-satellite position, see the globe view (requires WebGL).

§ Visibility from observer

Set your observer location to see the next 7 days of passes ≥ 10°. The values pass through the URL so the page stays shareable.

No JS? Fill the form by hand. The geolocation button needs JavaScript.